STARLINK-31109

decayed
NORAD ID: 58687 Int'l Des: 2023-211 Owner: SPXS Country: US Constellation: starlink
LEOCIRCULAR
グループ

STARLINK-31109について

説明を読み込み中...

高度履歴

Altitude vs Time

uPlot chart will show altitude changes over time

軌道要素

1 58687U 23211W 24138.53407094 .03908502 89854-5 12952-2 0 9990
2 58687 42.9785 160.4288 0000988 243.3172 251.9981 16.24894464 23285
Epoch: May 17, 2024 • Age: 11747 hours

現在のステータス

Position data unavailable
打ち上げ日 Dec 29, 2023
運用期間 1.7 years
落下予定日 May 18, 2024
タイプ internet

技術仕様

分類 Payload
質量 730.00 kg
乾燥質量 700.00 kg
総質量 730.00 kg
長さ 0.30 m
直径 4.10 m
スパン 29.00 m
形状 Box + pan
製造者 SPXS
バスタイプ Starlink V2M
フェーズステータス Reentered
所有者/国 SPXS/US

大規模コンステレーション

Loading constellations...